sat.trackr.live / text

‹ back to catalog

ONEWEB-0256

NORAD 48974 · 2021-060H

PAYLOAD ACTIVE UNKNOWN

§ Identity

Operator
Country
UK
Launch date
2021-07-01
Launch site
VOSTO
Launch vehicle
Mass (kg)
RCS (m²)

Purposes: comms

External: N2YO · Heavens-Above · Gunter

§ Orbital elements

Epoch: 2026-05-24T23:12:48.233088Z

Period
109.37 min
Inclination
87.9099°
Eccentricity
0.0002097
Mean motion
13.16596390 rev/d
Perigee alt
1,196.2 km
Apogee alt
1,199.3 km
Semi-major
7,575.9 km
B*
-1.9039e-4
RAAN
233.3950°
Arg perigee
99.7485°
Mean anomaly
260.3883°
Rev number
23,657

§ Raw data

ONEWEB-02561 48974U 21060H   26144.96722492 -.00000060  00000+0 -19039-3 0  99912 48974  87.9099 233.3950 0002097  99.7485 260.3883 13.16596390236577

JSON: /api/v1/satellites/48974 · /tle

For live sub-satellite position, see the globe view (requires WebGL).

§ Visibility from observer

Set your observer location to see the next 7 days of passes ≥ 10°. The values pass through the URL so the page stays shareable.

No JS? Fill the form by hand. The geolocation button needs JavaScript.